Regional Weather Roundup
Issued by NWS

Home | Current Version | Previous Version | Text Only | Print | Product List | Glossary Off
Versions: 1 2 3 4 5 6 7 8 9 10 11 12 13 14 15 16 17 18 19 20 21 22 23 24 25 26 27 28 29 30 31 32 33 34 35 36 37 38 39 40 41 42 43 44 45 46 47 48 49 50

000
ASUS43 KFSD 221410
RWRSD

WEATHER ROUNDUP FOR SOUTH DAKOTA
NATIONAL WEATHER SERVICE SIOUX FALLS SD
900 AM CDT WED MAR 22 2017

NOTE: "FAIR" INDICATES FEW OR NO CLOUDS BELOW 12,000 FEET WITH NO
SIGNIFICANT WEATHER AND/OR OBSTRUCTIONS TO VISIBILITY.


SDZ001>005-009-010-012>017-221500-
NORTHWEST AND NORTH CENTRAL SOUTH DAKOTA

CITY           SKY/WX    TMP DP  RH WIND       PRES   REMARKS
BUFFALO          N/A     31  28  89 SE20      29.83F WCI  19
FAITH            N/A     30  28  92 SE32G41   29.96F WCI  14
MOBRIDGE       CLOUDY    30  22  72 SE23G30   30.12F WCI  17
$$

SDZ012>016-024>037-041>051-057-063-072>074-221500-
SOUTHWEST AND SOUTH CENTRAL SOUTH DAKOTA

CITY           SKY/WX    TMP DP  RH WIND       PRES   REMARKS
RAPID CTY ARPT SUNNY     36  31  82 S24G33    29.92F
PIERRE         CLOUDY    30  26  85 SE20      30.18F WCI  17
CUSTER         CLOUDY    30  27  88 W5        29.94F WCI  25
ELLSWORTH AFB  SUNNY     36  35  99 S24G36    29.87S
PHILIP         MOSUNNY   34  29  82 SE16      30.06F WCI  24
PINE RIDGE     CLOUDY    38  33  82 S30G43    29.98F
SPEARFISH      FAIR      32  32 100 CALM      29.84F
WINNER         PTSUNNY   33  28  81 SE20      30.21F WCI  21
$$

SDZ004>011-016>023-039-040-221500-
NORTHEAST SOUTH DAKOTA

CITY           SKY/WX    TMP DP  RH WIND       PRES   REMARKS
ABERDEEN       CLOUDY    28  17  63 SE18      30.32F WCI  15
WATERTOWN      CLOUDY    25  12  58 SE17      30.34F WCI  12
BROOKINGS      CLOUDY    26  14  60 SE16      30.38S WCI  14
SISSETON         N/A     24  15  68 S17       30.40F WCI  11
$$

SDZ017-020-022-023-036>040-048>070-221500-
SOUTHEAST SOUTH DAKOTA

CITY           SKY/WX    TMP DP  RH WIND       PRES   REMARKS
SIOUX FALLS    CLOUDY    28  16  60 SE15G23   30.41S WCI  16
HURON          CLOUDY    29  17  61 SE18G25   30.34F WCI  16
CHAMBERLAIN    CLOUDY    31  28  89 SE16      30.27S WCI  20
MITCHELL       CLOUDY    31  18  58 SE18      30.36F WCI  19
YANKTON        CLOUDY    30  18  59 SE14      30.39S WCI  20
$$

ABBREVIATIONS USED IN REMARKS
   TC - TEMPERATURE IN CELSIUS
  WCI - WIND CHILL INDEX
   HX - HEAT INDEX
  VSB - VISIBILITY




USA.gov is the U.S. government's official web portal to all federal, state and local government web resources and services.